Weather History for KOFK - April, 2014

Change the Weather History Date:

Friday, April 25, 2014

  Actual Average Record
Temperature  
Mean Temperature 57 °F 53 °F  
Max Temperature 76 °F 66 °F 93 °F (1981)
Min Temperature 38 °F 41 °F 25 °F (1934)
Degree Days  
Heating Degree Days 8 12  
Month to date heating degree days 385 416  
Since 1 July heating degree days 6679 6365  
Cooling Degree Days 0 1  
Month to date cooling degree days 1 7  
Year to date cooling degree days 1 7  
Growing Degree Days 6 (Base 50)    
Moisture  
Dew Point 35 °F    
Average Humidity 53    
Maximum Humidity 85    
Minimum Humidity 21    
Precipitation  
Precipitation 0.00 in 0.10 in 1.24 in (1902)
Month to date precipitation 2.62 2.15  
Year to date precipitation 3.55 5.27  
Snow  
Snow 0.00 in 0.00 in - ()
Month to date snowfall 4.5 2.4  
Since 1 July snowfall 19.9 30.3  
Snow Depth 0.00 in    
Sea Level Pressure  
Sea Level Pressure 29.78 in    
Wind  
Wind Speed 4 mph (East)    
Max Wind Speed 9 mph    
Max Gust Speed 13 mph    
Visibility 10 miles    
Events      
T = Trace of Precipitation, MM = Missing Value Source: NWS Daily Summary

Daily Weather History Graph

Daily Weather History Graph

Search for Another Location

Airport or City:

Trip Planner

Search our weather history database for the weather conditions in past years. The results will help you decide how hot, cold, wet, or windy it might be!

Date:

Astronomy

Apr. 25, 2014 Rise Set
Actual Time 6:34 AM CDT 8:22 PM CDT
Civil Twilight 6:04 AM CDT 8:51 PM CDT
Nautical Twilight 5:27 AM CDT 9:28 PM CDT
Astronomical Twilight 4:48 AM CDT 10:07 PM CDT
Moon 4:27 AM CDT (4/25) 4:42 PM CDT (4/25)
Length of Visible Light 14h 47m
Length of Day
13h 47m
Waning Crescent, 15% of the Moon is Illuminated
Apr 25
Waning Crescent
Apr 29
New
May 6
First Quarter
May 14
Full
May 21
Last Quarter

Hourly Weather History & Observations

Time (CDT) Temp. Windchill Dew Point Humidity Pressure Visibility Wind Dir Wind Speed Gust Speed Precip Events Conditions
12:56 AM 44.1 °F - 34.0 °F 68% 29.81 in 10.0 mi Calm Calm - N/A   Clear
1:56 AM 42.1 °F - 34.0 °F 73% 29.82 in 10.0 mi Calm Calm - N/A   Clear
2:56 AM 39.0 °F - 34.0 °F 82% 29.82 in 10.0 mi Calm Calm - N/A   Clear
3:56 AM 39.9 °F - 34.0 °F 79% 29.82 in 10.0 mi Calm Calm - N/A   Clear
4:56 AM 39.9 °F - 35.1 °F 83% 29.83 in 10.0 mi Calm Calm - N/A   Scattered Clouds
5:56 AM 41.0 °F - 35.1 °F 79% 29.81 in 10.0 mi Calm Calm - N/A   Mostly Cloudy
6:56 AM 42.1 °F 40.2 °F 37.0 °F 82% 29.81 in 10.0 mi SE 3.5 mph - N/A   Partly Cloudy
7:56 AM 46.9 °F - 37.9 °F 71% 29.81 in 10.0 mi ENE 3.5 mph - N/A   Partly Cloudy
8:56 AM 51.1 °F - 39.9 °F 66% 29.81 in 10.0 mi East 4.6 mph - N/A   Partly Cloudy
9:56 AM 59.0 °F - 36.0 °F 42% 29.79 in 10.0 mi ESE 6.9 mph - N/A   Clear
11:56 AM 66.9 °F - 33.1 °F 28% 29.78 in 10.0 mi Calm Calm - N/A   Clear
12:56 PM 71.1 °F - 34.0 °F 26% 29.79 in 10.0 mi Calm Calm - N/A   Clear
1:56 PM 73.0 °F - 33.1 °F 23% 29.78 in 10.0 mi Calm Calm - N/A   Clear
2:56 PM 73.9 °F - 32.0 °F 21% 29.78 in 10.0 mi Calm Calm - N/A   Clear
3:56 PM 75.0 °F - 33.1 °F 22% 29.76 in 10.0 mi Variable 3.5 mph - N/A   Clear
4:56 PM 75.0 °F - 32.0 °F 21% 29.74 in 10.0 mi ESE 3.5 mph - N/A   Clear
5:56 PM 75.9 °F - 33.1 °F 21% 29.73 in 10.0 mi NE 6.9 mph - N/A   Clear
6:56 PM 73.0 °F - 35.1 °F 25% 29.73 in 10.0 mi ENE 6.9 mph - N/A   Clear
7:56 PM 69.1 °F - 36.0 °F 30% 29.73 in 10.0 mi ENE 8.1 mph - N/A   Clear
8:56 PM 64.0 °F - 35.1 °F 34% 29.76 in 10.0 mi East 5.8 mph - N/A   Clear
9:56 PM 61.0 °F - 34.0 °F 36% 29.78 in 10.0 mi East 4.6 mph - N/A   Clear
10:56 PM 60.1 °F - 33.1 °F 36% 29.78 in 10.0 mi East 9.2 mph - N/A   Clear
11:56 PM 57.9 °F - 34.0 °F 41% 29.76 in 10.0 mi ESE 9.2 mph - N/A   Clear